"Pseudo-MPEC" for C1FVG05

Created 2026 Aug 26 0:35:04 UT using Find_Orb

Click here for an explanation of pseudo-MPECs

 
 Astrometry: 
     C1FVG05*1C2026 08 23.23011622 09 52.556+25 54 32.54   ~8OFo       VNEOCPV00
     C1FVG05 1C2026 08 23.23648122 09 52.384+25 54 31.64   ~8OFo       VNEOCPV00
     C1FVG05 1C2026 08 23.24281522 09 52.196+25 54 29.99   ~8OFo 21.16GVNEOCPV00
     C1FVG05 1C2026 08 23.24914322 09 52.085+25 54 28.62   ~8OFo       VNEOCPV00
     C1FVG05 KC2026 08 24.29073022 09 28.12 +25 50 16.4    ~8OFo 21.3 GVNEOCPH21
     C1FVG05 KC2026 08 24.29493222 09 28.04 +25 50 15.2    ~8OFo 21.7 GVNEOCPH21
     C1FVG05 KC2026 08 24.29913222 09 27.92 +25 50 13.9    ~8OFo 21.0 GVNEOCPH21
     C1FVG05 DC2026 08 25.18435 22 09 08.94 +25 46 06.1    ~8P5Z 21.8 GVNEOCP695
     C1FVG05 KC2026 08 25.19334322 09 08.38 +25 46 02.9    ~8P55 21.8 GVNEOCPH21
     C1FVG05 DC2026 08 25.19488 22 09 08.67 +25 46 03.4    ~8P5Z 21.4 GVNEOCP695
     C1FVG05 KC2026 08 25.19623222 09 08.31 +25 46 02.0    ~8P55 22.0 GVNEOCPH21
     C1FVG05 KC2026 08 25.19912122 09 08.24 +25 46 01.4    ~8P55 21.7 GVNEOCPH21
     C1FVG05 DC2026 08 25.20541 22 09 08.39 +25 46 00.2    ~8P5Z 21.7 GVNEOCP695

Station data:
(695) Kitt Peak  (N31.958395 W111.594670)  US/Arizona. Measurer S. Deen.
   2.3-m f/9 reflector + CCD.
(H21) Astronomical Research Observatory, Westfield  (N39.483054 W87.968270)
   US/Illinois.  Observer R. Holmes. Measurers S. Foglia, L. Buzzi, T.
   Linder, R. Holmes. 0.40-m f/5.32 astrograph + CCD.
(V00) Kitt Peak-Bok  (N31.963125 W111.600190)  US/Arizona. Measurers T.
   Beuden, V. F. Carvajal, D. Fay, J. B. Fazekas, D. C. Fuls, A. R. Gibbs, A.
   D. Grauer, H. Gröller, J. K. Hogan, R. A. Kowalski, S. M. Larson, G. J.
   Leonard, D. Rankin, R. L. Seaman, F. C. Shelly, K. W. Wierzchoś. 2.25-m
   reflector + 4x4K mosaic CCD.

Orbital elements:  C1FVG05
   Perihelion 2026 Jul 29.489729 +/- 10.8 TT = 11:45:12.5 (JD 2461250.989729)
Epoch 2026 Aug 25.0 TT = JDT 2461277.5   Earth MOID: 0.6396      AutoNEOCP
M   7.130473465 +/- 2.6             (J2000 ecliptic)
n   0.268970220 +/- 0.0118          Peri.   88.273987 +/- 9
a   2.376839828 +/- 0.0695          Node   232.384211 +/- 2.8
e   0.33746051 +/- 0.0215           Incl.   13.964573 +/- 0.25
P   3.66437                H 20.66  G  0.15   U  9.8
q 1.574750244 +/- 0.0178    Q 3.178929412 +/- 0.142
From 13 observations 2026 Aug. 23-25 (47.4 hr); mean residual 0".17
Residuals in arcseconds: 
260823 V00  .09-  .11-    260824 H21  .17+  .05+    260825 H21  .02+  .12-    
260823 V00  .09-  .29+    260824 H21  .08+  .11-    260825 H21  .13+  .12+    
260823 V00  .31-  .06-    260825 695  .06-  .06-    260825 695  .00   .09-    
260823 V00  .52+  .13-    260825 H21  .09-  .06-    
260824 H21  .29-  .11+    260825 695  .02+  .17+    

Ephemerides (geocentric):
Date (UTC) HH   RA             Dec           delta  r     elong  mag " sig PA
---- --------  ------------   ------------  ------ ------ -----  --- --------
2026 08 26 01  22 08 49.268   +25 41 38.14  .65875 1.5899 143.6 21.8 .548   3
2026 08 26 02  22 08 48.344   +25 41 24.22  .65874 1.5899 143.7 21.8 .584   2
2026 08 26 03  22 08 47.420   +25 41 10.24  .65872 1.5900 143.7 21.8 .620   2
2026 08 26 04  22 08 46.497   +25 40 56.19  .65871 1.5900 143.7 21.8 .658   1
2026 08 26 05  22 08 45.573   +25 40 42.06  .65869 1.5901 143.7 21.8 .697   1
2026 08 26 06  22 08 44.651   +25 40 27.87  .65868 1.5901 143.7 21.8 .736   1
2026 08 26 07  22 08 43.728   +25 40 13.61  .65867 1.5902 143.7 21.8 .776   0
2026 08 26 08  22 08 42.806   +25 39 59.27  .65865 1.5902 143.8 21.8 .817   0
2026 08 26 09  22 08 41.885   +25 39 44.87  .65864 1.5903 143.8 21.8 .859   0
2026 08 26 10  22 08 40.964   +25 39 30.40  .65863 1.5903 143.8 21.8 .902 179
2026 08 26 11  22 08 40.043   +25 39 15.86  .65861 1.5903 143.8 21.8 .945 179
2026 08 26 12  22 08 39.123   +25 39 01.25  .65860 1.5904 143.8 21.8 .990 179
2026 08 26 13  22 08 38.203   +25 38 46.57  .65859 1.5904 143.8 21.8 1.03 179
2026 08 26 14  22 08 37.284   +25 38 31.82  .65857 1.5905 143.9 21.8 1.08 178
2026 08 26 15  22 08 36.365   +25 38 17.00  .65856 1.5905 143.9 21.8 1.13 178
2026 08 26 16  22 08 35.447   +25 38 02.12  .65855 1.5906 143.9 21.8 1.18 178
2026 08 26 17  22 08 34.529   +25 37 47.16  .65854 1.5906 143.9 21.8 1.22 178
2026 08 26 18  22 08 33.611   +25 37 32.14  .65853 1.5907 143.9 21.8 1.27 178
2026 08 26 19  22 08 32.694   +25 37 17.04  .65851 1.5907 143.9 21.8 1.32 177
2026 08 26 20  22 08 31.778   +25 37 01.88  .65850 1.5908 143.9 21.8 1.37 177
2026 08 26 21  22 08 30.862   +25 36 46.65  .65849 1.5908 144.0 21.8 1.43 177
2026 08 26 22  22 08 29.947   +25 36 31.34  .65848 1.5909 144.0 21.8 1.48 177
2026 08 26 23  22 08 29.032   +25 36 15.97  .65847 1.5909 144.0 21.8 1.53 177
2026 08 27 00  22 08 28.117   +25 36 00.53  .65846 1.5909 144.0 21.8 1.59 177
2026 08 27 01  22 08 27.203   +25 35 45.03  .65845 1.5910 144.0 21.8 1.64 177
2026 08 27 02  22 08 26.290   +25 35 29.45  .65844 1.5910 144.0 21.8 1.70 176
2026 08 27 03  22 08 25.377   +25 35 13.80  .65843 1.5911 144.0 21.8 1.75 176
2026 08 27 04  22 08 24.465   +25 34 58.09  .65842 1.5911 144.1 21.8 1.81 176
2026 08 27 05  22 08 23.553   +25 34 42.31  .65841 1.5912 144.1 21.8 1.87 176
2026 08 27 06  22 08 22.642   +25 34 26.45  .65840 1.5912 144.1 21.8 1.93 176
2026 08 27 07  22 08 21.731   +25 34 10.53  .65840 1.5913 144.1 21.8 1.99 176
2026 08 27 08  22 08 20.821   +25 33 54.54  .65839 1.5913 144.1 21.8 2.05 176
2026 08 27 09  22 08 19.912   +25 33 38.49  .65838 1.5914 144.1 21.8 2.11 176
2026 08 27 10  22 08 19.003   +25 33 22.36  .65837 1.5914 144.2 21.8 2.17 176
2026 08 27 11  22 08 18.094   +25 33 06.16  .65836 1.5915 144.2 21.8 2.23 176
2026 08 27 12  22 08 17.187   +25 32 49.90  .65835 1.5915 144.2 21.8 2.30 176
2026 08 27 13  22 08 16.280   +25 32 33.57  .65835 1.5916 144.2 21.8 2.36 175
2026 08 27 14  22 08 15.373   +25 32 17.17  .65834 1.5916 144.2 21.8 2.43 175
2026 08 27 15  22 08 14.467   +25 32 00.70  .65833 1.5917 144.2 21.8 2.49 175
2026 08 27 16  22 08 13.562   +25 31 44.16  .65833 1.5917 144.2 21.8 2.56 175
2026 08 27 17  22 08 12.657   +25 31 27.56  .65832 1.5918 144.3 21.8 2.63 175
2026 08 27 18  22 08 11.753   +25 31 10.88  .65831 1.5918 144.3 21.8 2.70 175
2026 08 27 19  22 08 10.850   +25 30 54.14  .65831 1.5918 144.3 21.8 2.77 175
2026 08 27 20  22 08 09.947   +25 30 37.33  .65830 1.5919 144.3 21.8 2.84 175
2026 08 27 21  22 08 09.045   +25 30 20.45  .65830 1.5919 144.3 21.8 2.91 175
2026 08 27 22  22 08 08.144   +25 30 03.51  .65829 1.5920 144.3 21.8 2.98 175
2026 08 27 23  22 08 07.243   +25 29 46.49  .65829 1.5920 144.3 21.8 3.05 175
2026 08 28 00  22 08 06.343   +25 29 29.41  .65828 1.5921 144.4 21.8 3.13 175